User: anonymous   Login
Location: Northam
(31.6525°S, 116.6655°E)
Time: 18:00:33
(UTC+08:00)
Language:

Hubble Space Telescope - Orbit

View from above orbital plane
View from above orbital plane
View from above satellite
View from above satellite

Ground track
Ground track

The orbit data is extracted from the following two-line orbital elements,

1 20580U 90037B   21168.98252149  .00000566  00000-0  23299-4 0  9998
2 20580  28.4707  61.5775 0002824  71.1402  38.9727 15.09661459511129
Epoch (UTC): 17 June 2021 23:34:49
Eccentricity: 0.0002824
inclination: 28.4707°
perigee height: 535 km
apogee height: 539 km
right ascension of ascending node: 61.5775°
argument of perigee: 71.1402°
revolutions per day: 15.09661459
mean anomaly at epoch: 38.9727°
orbit number at epoch: 51112

The dashed part of the orbit path shows where the satellite is in the earth's shadow,  

DLR